[[{"header":{"parameterUnit":"m.s-1","parameterCategory":1,"la1":30.2991,"la2":30.254,"lo1":-89.0895,"lo2":-89.0444,"dy":0.0017,"dx":0.0017,"nx":28,"ny":28,"refTime":"2024-07-27T09:00:00:Z","depth":0,"parameterNumber":2,"parameterNumberName":"U-component_of_WINDS"},"data":[0,0,0,0,0,0,0,0,0,0,0,0,0,0,0,0,0,0,0,0,0,0,0,0,0,0,0,0,0,0,0,0,0,0,0,0,0,0,0,0,0,0,0,0,0,0,0,0,0,0,0,0,0,0,0,0,0,0,4.3883,4.3884,0,4.4015,4.4016,4.4018,4.3925,4.392,4.3916,4.3912,4.4052,4.406,4.4067,0,0,0,0,0,0,0,0,0,0,0,0,0,4.3551,4.3558,4.3883,4.3884,4.3886,4.4015,4.4017,4.4018,4.3925,4.392,4.3915,4.391,4.405,4.4059,4.4068,0,0,0,0,0,0,0,0,0,0,0,0,0,4.3691,4.356,4.3882,4.3855,4.3854,4.4014,4.4017,4.4019,4.3926,4.392,4.3914,4.3908,4.4047,4.4058,4.4069,4.4265,0,0,4.4104,4.4109,0,0,0,0,0,0,0,0,4.3683,4.3703,4.3857,4.3857,4.3856,4.3947,4.3951,4.4102,4.3928,4.3899,4.3912,4.3905,4.4023,4.4036,4.4074,4.4272,4.4278,4.4105,4.4112,4.4117,4.412,0,0,0,0,0,0,0,4.3674,4.3697,4.3935,4.386,4.3859,4.3837,4.3849,4.3979,4.3995,4.3901,4.3894,4.3911,4.4021,4.4064,4.4077,4.428,4.4105,4.4115,4.4122,4.4127,4.4642,4.4648,0,0,0,0,0,0,4.3666,4.369,4.3931,4.3939,4.3752,4.3848,4.3862,4.3924,4.3993,4.3997,4.3916,4.3906,4.4047,4.4064,4.4081,4.4313,4.4117,4.4128,4.4134,4.4635,4.4643,4.465,0,0,0,0,0,0,4.3659,4.3688,4.3926,4.3813,4.3841,4.386,4.393,4.393,4.3972,4.4004,4.4007,4.3957,4.4043,4.4065,4.4219,4.4316,4.4133,4.4143,4.4627,4.4637,4.4647,4.4779,0,0,0,0,0,0,4.365,4.3687,4.3761,4.3815,4.3847,4.4061,4.3937,4.3937,4.3992,4.398,4.4043,4.4047,4.404,4.4203,4.4231,4.4329,4.4152,4.4618,4.4631,4.4644,4.4766,4.4792,4.4815,0,0,0,0,0,4.3639,4.3795,4.3765,4.3795,4.3941,4.4067,4.4085,4.4072,4.4,4.4075,4.4095,4.4045,4.4302,4.4219,4.425,4.4353,4.4612,4.4628,4.4643,4.4755,4.4787,4.4814,0,0,0,0,0,0,4.3754,4.3801,4.3769,4.3947,4.4003,4.4051,4.4145,4.4107,4.4186,4.4172,4.4153,4.4168,4.4328,4.4356,4.4264,4.4545,4.4445,4.4468,4.452,4.4551,4.4575,4.4564,4.4162,0,0,0,0,0,4.38,4.3897,4.3934,4.4088,4.4117,4.4126,4.4181,4.4165,4.4223,4.4247,4.4278,4.4338,4.443,4.4493,4.4581,4.477,4.4781,4.4856,4.488,4.49,4.4919,4.5018,4.5051,4.4701,4.4701,4.47,0,0,4.3897,4.3934,4.3997,4.4112,4.4153,4.4254,4.4147,4.426,4.4334,4.4264,4.441,4.4436,4.45,4.4671,4.4749,4.47,4.5018,4.492,4.4936,4.4944,4.5037,4.507,4.51,4.4711,4.4709,4.4708,0,0,4.4123,4.4162,4.4293,4.4336,4.4399,4.4404,4.4435,4.4488,4.4501,4.4647,4.4595,4.4685,4.4847,4.4894,4.4939,4.5181,4.5137,4.521,4.5338,4.5434,4.5462,4.5486,4.557,4.56,4.5229,4.523,4.523,0,4.4235,4.4384,4.4365,4.448,4.4531,4.447,4.4602,4.4645,4.4735,4.4772,4.4715,4.4915,4.4955,4.5134,4.5193,4.5233,4.5267,4.5202,4.5459,4.5483,4.5506,4.5585,4.5617,4.5238,4.5237,4.5236,4.5235,0,4.4517,4.4622,4.472,4.4805,4.4867,4.499,4.499,4.5055,4.5034,4.5044,4.5192,4.5237,4.5331,4.5373,4.5355,4.555,4.5517,4.5461,4.536,4.5548,4.5622,4.5652,4.525,4.5247,4.5244,4.5242,0,0,4.4821,4.4892,4.4928,4.4964,4.5028,4.5109,4.5229,4.5319,4.5374,4.5438,4.5537,4.5674,4.5621,4.5672,4.5659,4.5744,4.5928,4.5676,4.5677,4.5719,4.6143,4.6183,4.6219,4.59,4.5906,4.5911,4.6136,0,4.5049,4.5255,4.524,4.5435,4.553,4.5472,4.5576,4.5627,4.564,4.5723,4.5737,4.5833,4.5758,4.5788,4.587,4.5889,4.6013,4.5872,4.5991,4.5996,4.5974,4.6258,4.6302,4.6512,4.6165,4.617,4.6174,0,4.5342,4.5412,4.5616,4.5663,4.5702,4.5796,4.5875,4.5955,4.6011,4.6014,4.607,4.6042,4.6162,4.6059,4.6224,4.6129,4.6177,4.6193,4.6201,4.621,4.6095,4.6272,4.6579,4.661,4.622,4.6216,4.6213,0,4.5539,4.5686,4.5825,4.5859,4.5918,4.5984,4.6012,4.6062,4.6116,4.6186,4.622,4.6305,4.6351,4.6417,4.6412,4.6338,4.6578,4.6476,4.6583,4.6583,4.6635,4.6631,4.6952,4.667,4.667,4.6669,4.6669,0,4.5793,4.592,4.5914,4.6,4.6139,4.612,4.6259,4.628,4.6324,4.6412,4.6369,4.6454,4.6442,4.6527,4.6524,4.6659,4.6681,4.6686,4.6683,4.6689,4.6688,4.6718,4.6703,4.6678,4.6676,4.6674,4.6673,0,4.6037,4.6038,4.6186,4.6229,4.6242,4.6343,4.6379,4.646,4.6468,4.6581,4.6606,4.662,4.6717,4.6718,4.6831,4.6828,4.6992,4.6975,4.6973,4.6968,4.7074,4.7063,4.7424,4.7469,4.7161,4.7164,4.7166,0,4.6198,4.6293,4.6344,4.6399,4.6431,4.6521,4.6575,4.6561,4.6619,4.6688,4.676,4.6853,4.6925,4.7083,4.7104,4.7189,4.7171,4.7291,4.7183,4.7184,4.7169,4.7162,4.717,4.7312,4.7315,4.7318,4.732,0,4.6482,4.6477,4.6556,4.6635,4.6699,4.6761,4.6818,4.6866,4.6858,4.6926,4.7023,4.7079,4.7192,4.7283,4.7365,4.7394,4.7356,4.7354,4.7383,4.7388,4.7382,4.7383,4.7027,4.7346,4.7343,4.7341,4.734,4.7339,4.6687,4.6768,4.6815,4.6904,4.6944,4.6998,4.7075,4.7091,4.7172,4.726,4.7248,4.7356,4.7407,4.7512,4.7548,4.7632,4.759,4.7633,4.7643,4.7653,4.7663,4.737,4.7648,4.7647,4.7646,4.7646,4.7645,0,4.6967,4.6994,4.7075,4.7154,4.7224,4.718,4.724,4.7301,4.7396,4.7446,4.7518,4.7628,4.7717,4.7743,4.7828,4.789,4.7875,4.7913,4.7907,4.7914,4.7697,4.7662,4.7924,4.7924,4.7924,4.7924,4.7924,4.7923,4.712,4.7252,4.7253,4.7405,4.7432,4.7535,4.7573,4.7621,4.7661,4.7785,4.7858,4.7873,4.7914,4.8001,4.808,4.8085,4.8117,4.8162,4.8161,4.7958,4.7929,4.7903,4.7869,4.817,4.817,4.8369,4.8371,4.8372]},{"header":{"parameterUnit":"m.s-1","parameterCategory":1,"la1":30.2991,"la2":30.254,"lo1":-89.0895,"lo2":-89.0444,"dy":0.0017,"dx":0.0017,"nx":28,"ny":28,"refTime":"2024-07-27T09:00:00:Z","depth":0,"parameterNumber":3,"parameterNumberName":"V-component_of_WINDS"},"data":[0,0,0,0,0,0,0,0,0,0,0,0,0,0,0,0,0,0,0,0,0,0,0,0,0,0,0,0,0,0,0,0,0,0,0,0,0,0,0,0,0,0,0,0,0,0,0,0,0,0,0,0,0,0,0,0,0,0,2.4362,2.4363,0,2.44,2.44,2.4401,2.4344,2.4342,2.434,2.4338,2.4377,2.438,2.4383,0,0,0,0,0,0,0,0,0,0,0,0,0,2.424,2.4243,2.4362,2.4363,2.4363,2.44,2.44,2.4401,2.4345,2.4342,2.434,2.4337,2.4376,2.438,2.4383,0,0,0,0,0,0,0,0,0,0,0,0,0,2.4287,2.4244,2.4362,2.4339,2.4338,2.44,2.44,2.4401,2.4345,2.4342,2.4339,2.4336,2.4375,2.4379,2.4384,2.447,0,0,2.4397,2.4399,0,0,0,0,0,0,0,0,2.4285,2.4292,2.4342,2.4341,2.4339,2.4364,2.4372,2.4424,2.4346,2.4342,2.4338,2.4335,2.4375,2.438,2.4393,2.4472,2.4473,2.4397,2.44,2.4402,2.4403,0,0,0,0,0,0,0,2.4281,2.429,2.4377,2.4343,2.4341,2.4327,2.433,2.4381,2.4375,2.4342,2.4338,2.4344,2.4374,2.4389,2.4394,2.4474,2.4397,2.4401,2.4404,2.4405,2.4623,2.4626,0,0,0,0,0,0,2.4281,2.4287,2.4376,2.4378,2.4304,2.4332,2.4335,2.4359,2.4374,2.4374,2.4346,2.4341,2.4383,2.4389,2.4395,2.4495,2.4402,2.4406,2.4408,2.462,2.4624,2.4627,0,0,0,0,0,0,2.4279,2.4289,2.4374,2.4332,2.4342,2.4337,2.4364,2.4362,2.4377,2.4377,2.4376,2.4363,2.4381,2.4389,2.4451,2.4496,2.4408,2.4412,2.4616,2.4621,2.4625,2.4698,0,0,0,0,0,0,2.4275,2.4289,2.4322,2.4333,2.4344,2.4431,2.4367,2.4365,2.4384,2.4378,2.4392,2.4392,2.4379,2.4445,2.4455,2.45,2.4415,2.4612,2.4618,2.4624,2.4692,2.4705,2.4716,0,0,0,0,0,2.4271,2.4342,2.4324,2.4335,2.4385,2.4434,2.444,2.4424,2.4388,2.4421,2.4421,2.4391,2.4489,2.4452,2.4463,2.451,2.4609,2.4616,2.4623,2.4687,2.4703,2.4716,0,0,0,0,0,0,2.4337,2.4343,2.4323,2.44,2.4416,2.4424,2.4465,2.4442,2.4469,2.4462,2.4441,2.4444,2.4511,2.4517,2.4475,2.4593,2.4543,2.4553,2.4587,2.4603,2.4614,2.4612,2.4419,0,0,0,0,0,2.436,2.4399,2.4402,2.4469,2.4478,2.447,2.4491,2.4477,2.4493,2.45,2.4505,2.4522,2.4556,2.458,2.4612,2.4692,2.4694,2.473,2.4742,2.4752,2.4761,2.4802,2.4818,2.4651,2.465,2.465,0,0,2.4409,2.4417,2.4443,2.4482,2.4494,2.4534,2.4477,2.4522,2.4551,2.4507,2.4566,2.457,2.4588,2.4659,2.4691,2.4666,2.4807,2.4761,2.4769,2.4772,2.4811,2.4827,2.4841,2.4655,2.4655,2.4654,0,0,2.4518,2.4528,2.4584,2.4597,2.4614,2.4608,2.4622,2.4632,2.4633,2.4692,2.4659,2.4693,2.4753,2.4767,2.4782,2.4894,2.4867,2.4904,2.4968,2.5009,2.5022,2.5034,2.5073,2.5087,2.4913,2.4913,2.4913,0,2.4576,2.4636,2.4616,2.4663,2.4681,2.4642,2.4698,2.4711,2.4738,2.4751,2.4723,2.4796,2.4805,2.4879,2.4906,2.4919,2.4933,2.4903,2.5022,2.5033,2.5044,2.5081,2.5095,2.4918,2.4917,2.4917,2.4916,0,2.4706,2.4747,2.4791,2.4817,2.484,2.4891,2.4879,2.4904,2.4887,2.4884,2.4944,2.4953,2.4985,2.5001,2.4986,2.5072,2.5056,2.5025,2.4974,2.5064,2.5099,2.5113,2.4924,2.4922,2.4921,2.492,0,0,2.4859,2.4873,2.4889,2.49,2.4915,2.4947,2.4996,2.5027,2.5048,2.5068,2.5108,2.5159,2.5129,2.5146,2.5132,2.5168,2.5254,2.5132,2.5132,2.5154,2.5348,2.5371,2.5388,2.5236,2.5239,2.5241,2.5346,0,2.4967,2.5052,2.5035,2.5117,2.5154,2.5117,2.5159,2.5173,2.5171,2.5202,2.5199,2.5235,2.5195,2.5204,2.5238,2.5237,2.5293,2.5229,2.5273,2.5275,2.5269,2.5406,2.5431,2.553,2.536,2.5362,2.5364,0,2.5105,2.5129,2.5215,2.5223,2.5238,2.5276,2.5302,2.5333,2.5347,2.5343,2.5361,2.5339,2.5386,2.5335,2.54,2.5356,2.5373,2.5375,2.5379,2.5382,2.5325,2.5413,2.5561,2.5576,2.5385,2.5383,2.5382,0,2.5207,2.526,2.5318,2.5329,2.534,2.5368,2.5373,2.5385,2.5404,2.5427,2.5439,2.5467,2.5482,2.5504,2.549,2.5454,2.5557,2.5505,2.5554,2.5555,2.5578,2.5577,2.5731,2.559,2.5589,2.5589,2.5589,0,2.5329,2.5383,2.5364,2.54,2.5458,2.5438,2.5497,2.5498,2.5508,2.5543,2.5512,2.5545,2.5525,2.5556,2.5546,2.56,2.5608,2.5605,2.5601,2.5608,2.5608,2.5618,2.5611,2.5593,2.5592,2.5591,2.5591,0,2.5453,2.5443,2.5503,2.5508,2.551,2.5553,2.5557,2.559,2.5585,2.5629,2.5638,2.563,2.5665,2.5653,2.5691,2.5684,2.5753,2.5741,2.5748,2.5745,2.5795,2.579,2.5961,2.5982,2.5828,2.5829,2.5831,0,2.5532,2.5572,2.5581,2.5602,2.5609,2.5644,2.5663,2.5643,2.5664,2.5683,2.5713,2.5745,2.577,2.5828,2.5825,2.5853,2.5841,2.5899,2.5845,2.585,2.5841,2.5839,2.5842,2.591,2.5912,2.5913,2.5914,0,2.5672,2.5664,2.5693,2.5719,2.5743,2.5763,2.578,2.5799,2.578,2.5805,2.584,2.5859,2.5897,2.5929,2.5954,2.596,2.5934,2.5931,2.5944,2.5951,2.5953,2.5951,2.5777,2.5927,2.5926,2.5925,2.5924,2.5924,2.5775,2.5809,2.582,2.5852,2.5863,2.5879,2.5909,2.5907,2.5936,2.5965,2.5952,2.5993,2.6004,2.6035,2.6044,2.6075,2.6052,2.6071,2.6076,2.6081,2.6087,2.5948,2.6079,2.6079,2.6078,2.6078,2.6078,0,2.5913,2.5918,2.5948,2.5972,2.5997,2.597,2.5987,2.601,2.6046,2.6059,2.6083,2.6123,2.6153,2.6152,2.618,2.6205,2.6194,2.6213,2.6211,2.6212,2.6106,2.6091,2.6222,2.6222,2.6222,2.6221,2.6221,2.6221,2.5988,2.6043,2.6036,2.6096,2.61,2.6139,2.6151,2.6165,2.6175,2.6221,2.6246,2.6244,2.6251,2.6279,2.6306,2.6304,2.6316,2.6339,2.6334,2.6234,2.622,2.6206,2.6193,2.6342,2.6342,2.6438,2.6439,2.6439]}]]